Portada
METAR-TAF:

METAR-TAF

Aeropuertos :

Villavicencio, Colombia

Aeropuerto Vanguardia

latitud: 04-10N, longitud: 073-37W, altitud: 423 m

Observación

El informe se hizo hace 10 horas y 53 minutos, a las 23:00 UTC
Viento calma
Temperatura 25°C
Humedad 79%
Presión 1012 hPa
Visibilidad 10 km o más
Escasas nubes a una altura de 2000 ft
Nubes dispersas a una altura de 20000 ft

METAR: SKVV 222300Z 00000KT 9999 FEW020 SCT200 25/21 A2989

Hora: 04:53 (09:53 UTC)


TAF: falta

Observaciones y pronósticos meteorológicos de más de 4000 aeropuertos (mensajes METAR y TAF).

Los puntos amarillos y rojos representan las estaciones disponibles.

Ponga el ratón en el punto deseado para ver el nombre de la estación.

Haga clic para ver las observaciones y los pronósticos meteorológicos.

Para cambiar el mapa : haga clic en los botones verdes con una cruz de color negro para hacer un zoom, en el botón verde con un guión para alejar o en las flechas verdes para mapas adyacentes.


METAR-TAF: